Muncie, IN

3:15 PM EDT on April 25, 2018 (GMT -0400)
Delaware County-Johnson

Weather History for KMIE - October, 2012

Change the Weather History Date:

Friday, October 26, 2012

  Actual Average Record
Temperature  
Mean Temperature 55 °F 51 °F  
Max Temperature 67 °F 61 °F 81 °F (1963)
Min Temperature 43 °F 41 °F 20 °F (1962)
Degree Days  
Heating Degree Days 10 15  
Month to date heating degree days 284 287  
Since 1 July heating degree days 409 388  
Cooling Degree Days 0 0  
Month to date cooling degree days 8 13  
Year to date cooling degree days 1149 952  
Growing Degree Days 5 (Base 50)    
Moisture  
Dew Point 41 °F    
Average Humidity 76    
Maximum Humidity 93    
Minimum Humidity 58    
Precipitation  
Precipitation 0.13 in 0.09 in 1.70 in (1991)
Month to date precipitation 4.58 2.45  
Year to date precipitation 29.14 33.32  
Sea Level Pressure  
Sea Level Pressure 30.13 in    
Wind  
Wind Speed 11 mph (NNW)    
Max Wind Speed 22 mph    
Max Gust Speed 28 mph    
Visibility 9 miles    
Events Rain    
T = Trace of Precipitation, MM = Missing Value Source: NWS Daily Summary

Daily Weather History Graph

Daily Weather History Graph

Search for Another Location

Airport or City:

Astronomy

Oct. 26, 2012 Rise Set
Actual Time 8:04 AM EDT 6:45 PM EDT
Civil Twilight 7:36 AM EDT 7:13 PM EDT
Nautical Twilight 7:05 AM EDT 7:45 PM EDT
Astronomical Twilight 6:33 AM EDT 8:16 PM EDT
Moon 5:01 PM EDT (10/26) 5:00 AM EDT (10/26)
Length of Visible Light 11h 36m
Length of Day
10h 40m
Waxing Gibbous, 91% of the Moon is Illuminated
Oct 26
Waxing Gibbous
Oct 29
Full
Nov 6
Last Quarter
Nov 13
New
Nov 20
First Quarter

Hourly Weather History & Observations

Time (EDT) Temp. Windchill Dew Point Humidity Pressure Visibility Wind Dir Wind Speed Gust Speed Precip Events Conditions
12:53 AM 66.9 °F - 52.0 °F 59% 29.89 in 10.0 mi SSW 11.5 mph 19.6 mph N/A   Mostly Cloudy
1:18 AM 57.2 °F - 51.8 °F 82% 29.96 in 10.0 mi WNW 10.4 mph - N/A   Overcast
1:53 AM 53.1 °F - 48.0 °F 83% 29.98 in 10.0 mi WNW 12.7 mph 23.0 mph N/A   Partly Cloudy
2:53 AM 52.0 °F - 46.0 °F 80% 30.00 in 10.0 mi NW 13.8 mph 20.7 mph N/A   Overcast
3:53 AM 48.0 °F - 44.1 °F 86% 30.03 in 10.0 mi WNW 16.1 mph - N/A   Overcast
4:27 AM 48.2 °F - 44.6 °F 87% 30.06 in 10.0 mi NW 13.8 mph 23.0 mph N/A   Overcast
4:53 AM 48.0 °F - 44.1 °F 86% 30.05 in 6.0 mi NW 13.8 mph - 0.00 in Rain Light Rain
5:53 AM 46.9 °F - 45.0 °F 93% 30.07 in 6.0 mi NW 10.4 mph - 0.03 in Rain Light Rain
6:31 AM 46.4 °F 40.7 °F 42.8 °F 87% 30.14 in 5.0 mi NNW 12.7 mph 26.5 mph 0.01 in Rain Light Rain
6:38 AM 46.4 °F 39.5 °F 42.8 °F 87% 30.14 in 5.0 mi NNW 17.3 mph 21.9 mph 0.02 in Rain Light Rain
6:53 AM 46.0 °F 39.6 °F 43.0 °F 89% 30.13 in 4.0 mi NNW 15.0 mph - 0.04 in Rain Light Rain
7:08 AM 46.4 °F 39.8 °F 42.8 °F 87% 30.14 in 7.0 mi NNW 16.1 mph - 0.01 in Rain Light Rain
7:15 AM 46.4 °F 39.8 °F 42.8 °F 87% 30.13 in 9.0 mi NNW 16.1 mph - 0.01 in   Overcast
7:35 AM 46.4 °F 40.7 °F 42.8 °F 87% 30.11 in 10.0 mi North 12.7 mph - 0.01 in   Overcast
7:53 AM 46.0 °F 40.6 °F 42.1 °F 86% 30.12 in 10.0 mi North 11.5 mph - 0.01 in   Overcast
8:53 AM 45.0 °F 38.2 °F 41.0 °F 86% 30.16 in 10.0 mi NNW 15.0 mph - 0.00 in Rain Light Rain
9:46 AM 44.6 °F 38.1 °F 39.2 °F 81% 30.20 in 10.0 mi North 13.8 mph - N/A   Overcast
9:53 AM 44.1 °F 37.1 °F 39.0 °F 82% 30.19 in 10.0 mi North 15.0 mph - N/A   Overcast
10:53 AM 45.0 °F 38.5 °F 39.9 °F 82% 30.20 in 10.0 mi North 13.8 mph - N/A   Overcast
11:53 AM 46.0 °F 40.2 °F 37.9 °F 73% 30.21 in 10.0 mi North 12.7 mph - N/A   Overcast
12:53 PM 46.9 °F - 39.0 °F 74% 30.23 in 10.0 mi NNW 11.5 mph - N/A   Overcast
1:53 PM 46.0 °F 40.6 °F 37.0 °F 71% 30.22 in 10.0 mi North 11.5 mph - N/A   Overcast
2:51 PM 44.6 °F 38.4 °F 37.4 °F 76% 30.20 in 8.0 mi North 12.7 mph - 0.03 in Rain Light Rain
2:53 PM 46.0 °F 40.6 °F 37.9 °F 73% 30.19 in 10.0 mi NNE 11.5 mph - 0.03 in Rain Light Rain
3:53 PM 46.9 °F - 37.0 °F 68% 30.19 in 10.0 mi NNE 15.0 mph - 0.00 in   Mostly Cloudy
4:53 PM 46.9 °F - 36.0 °F 66% 30.19 in 10.0 mi North 11.5 mph - 0.00 in Rain Light Rain
5:53 PM 45.0 °F 41.2 °F 37.9 °F 76% 30.18 in 10.0 mi NNE 6.9 mph - 0.02 in Rain Light Rain
6:53 PM 45.0 °F 42.6 °F 37.9 °F 76% 30.17 in 10.0 mi NE 4.6 mph - 0.00 in   Overcast
7:53 PM 46.0 °F 43.9 °F 37.9 °F 73% 30.19 in 10.0 mi ENE 4.6 mph - N/A   Overcast
8:53 PM 45.0 °F - 39.9 °F 82% 30.20 in 10.0 mi Calm Calm - N/A   Overcast
9:53 PM 45.0 °F 39.3 °F 35.1 °F 68% 30.19 in 10.0 mi NNE 11.5 mph - N/A   Overcast
10:53 PM 45.0 °F 40.1 °F 36.0 °F 71% 30.20 in 10.0 mi North 9.2 mph - N/A   Overcast
11:53 PM 44.1 °F 38.1 °F 35.1 °F 71% 30.19 in 10.0 mi North 11.5 mph - N/A   Overcast